EW9394 Weather Reports


Display with metric or nautical units.
time (UTC)temp
F
wind
direction
speed
MPH
gust
MPH
rain 1hr
in
rain 24hr
in
rain mn
in
humidity
%
barometer
mb
20260502215914 79 304 3.0 3.0 0.00 0.00 0.00 32 1020.5
20260502215412 79 287 3.0 3.0 0.00 0.00 0.00 30 1020.5
20260502214908 79 133 1.0 1.0 0.00 0.00 0.00 32 1020.4
20260502214405 79 234 1.0 1.0 0.00 0.00 0.00 31 1020.6
20260502213903 79 254 3.0 5.0 0.00 0.00 0.00 32 1020.9
20260502213359 79 302 3.0 5.0 0.00 0.00 0.00 32 1020.7
20260502212859 78 259 2.0 2.0 0.00 0.00 0.00 31 1020.8
20260502212356 78 265 2.0 2.0 0.00 0.00 0.00 32 1020.9
20260502211853 79 266 3.0 5.0 0.00 0.00 0.00 31 1021.0
20260502211349 79 260 1.0 3.0 0.00 0.00 0.00 34 1020.8
20260502210847 78 271 2.0 2.0 0.00 0.00 0.00 32 1021.2
20260502210343 78 318 4.0 5.0 0.00 0.00 0.00 33 1021.0
20260502205841 78 258 0.0 1.0 0.00 0.00 0.00 34 1021.1
20260502205337 77 224 1.0 2.0 0.00 0.00 0.00 32 1021.2
20260502204834 77 280 4.0 6.0 0.00 0.00 0.00 33 1021.5
20260502204331 78 263 2.0 2.0 0.00 0.00 0.00 32 1021.4
20260502203828 78 242 0.0 0.0 0.00 0.00 0.00 35 1021.4
20260502203326 78 332 4.0 8.0 0.00 0.00 0.00 33 1021.3
20260502202826 79 302 1.0 2.0 0.00 0.00 0.00 32 1021.6
20260502202324 79 314 2.0 2.0 0.00 0.00 0.00 34 1021.4
20260502201822 78 93 2.0 3.0 0.00 0.00 0.00 33 1021.6
20260502201317 78 4 3.0 3.0 0.00 0.00 0.00 33 1021.7
20260502200814 77 206 0.0 1.0 0.00 0.00 0.00 34 1021.6
20260502200310 77 265 3.0 5.0 0.00 0.00 0.00 32 1021.8
20260502195808 77 356 2.0 3.0 0.00 0.00 0.00 32 1022.0
20260502195305 77 253 2.0 3.0 0.00 0.00 0.00 34 1022.0
20260502194801 77 1 2.0 6.0 0.00 0.00 0.00 35 1022.0
20260502194258 76 329 2.0 2.0 0.00 0.00 0.00 35 1022.0
20260502193754 77 345 3.0 3.0 0.00 0.00 0.00 32 1022.0
20260502193252 78 272 3.0 3.0 0.00 0.00 0.00 33 1022.0
20260502192751 77 311 0.0 1.0 0.00 0.00 0.00 37 1022.2
20260502192249 77 168 0.0 1.0 0.00 0.00 0.00 37 1022.4
20260502191746 77 188 1.0 2.0 0.00 0.00 0.00 34 1022.5
20260502191244 77 314 1.0 2.0 0.00 0.00 0.00 35 1022.1
20260502190741 77 237 2.0 3.0 0.00 0.00 0.00 35 1022.4
20260502190239 76 271 3.0 3.0 0.00 0.00 0.00 34 1022.4
20260502185738 76 316 3.0 5.0 0.00 0.00 0.00 34 1022.4
20260502185235 77 286 3.0 5.0 0.00 0.00 0.00 35 1022.5
20260502184732 76 162 0.0 1.0 0.00 0.00 0.00 36 1022.6
20260502184227 76 96 1.0 2.0 0.00 0.00 0.00 35 1022.6
20260502183724 76 2 4.0 6.0 0.00 0.00 0.00 34 1022.8
20260502183220 76 256 0.0 0.0 0.00 0.00 0.00 35 1022.6
20260502182716 75 353 2.0 2.0 0.00 0.00 0.00 34 1022.9
20260502182211 76 271 1.0 2.0 0.00 0.00 0.00 32 1022.7
20260502181709 75 251 1.0 1.0 0.00 0.00 0.00 36 1022.8
20260502181208 75 190 1.0 1.0 0.00 0.00 0.00 38 1023.0
20260502180704 73 269 2.0 2.0 0.00 0.00 0.00 36 1023.0
20260502180202 75 224 5.0 6.0 0.00 0.00 0.00 35 1023.1
20260502170126 74 97 0.0 1.0 0.00 0.00 0.00 36 1023.9
20260502164113 73 46 0.0 1.0 0.00 0.00 0.00 39 1024.1
20260502163609 72 241 1.0 1.0 0.00 0.00 0.00 36 1023.7
20260502163105 72 65 1.0 2.0 0.00 0.00 0.00 37 1023.7
20260502162602 71 169 0.0 0.0 0.00 0.00 0.00 40 1023.8
20260502162059 71 316 2.0 2.0 0.00 0.00 0.00 41 1024.0
20260502161556 71 329 2.0 2.0 0.00 0.00 0.00 41 1023.8
20260502161054 71 315 2.0 3.0 0.00 0.00 0.00 41 1023.7
20260502160552 70 255 1.0 1.0 0.00 0.00 0.00 42 1023.6
20260502152004 68 45 0.0 0.0 0.00 0.00 0.00 47 1023.5
20260502151501 67 346 1.0 1.0 0.00 0.00 0.00 47 1023.6
20260502150958 67 334 1.0 2.0 0.00 0.00 0.00 46 1023.7
20260502150455 67 295 2.0 2.0 0.00 0.00 0.00 48 1023.4
20260502130341 55 258 2.0 2.0 0.00 0.00 0.00 90 1022.7
20260502123323 52 250 0.0 0.0 0.00 0.00 0.00 96 1022.2
20260502122821 51 250 0.0 0.0 0.00 0.00 0.00 96 1022.3
20260502122316 51 249 0.0 0.0 0.00 0.00 0.00 96 1022.2
20260502121815 51 249 0.0 0.0 0.00 0.00 0.00 96 1022.0
20260502121312 50 249 0.0 0.0 0.00 0.00 0.00 96 1021.7
20260502120809 50 249 0.0 0.0 0.00 0.00 0.00 95 1021.6
20260502120305 50 249 0.0 0.0 0.00 0.00 0.00 95 1021.6
20260502115803 50 249 0.0 0.0 0.00 0.00 0.00 95 1021.7
20260502115300 50 249 0.0 0.0 0.00 0.00 0.00 95 1021.7
20260502114756 50 249 0.0 0.0 0.00 0.00 0.00 94 1021.5
20260502114253 50 249 0.0 0.0 0.00 0.00 0.00 94 1021.3
20260502113750 50 249 0.0 0.0 0.00 0.00 0.00 93 1021.3
20260502113248 51 249 0.0 0.0 0.00 0.00 0.00 93 1021.3
20260502112746 51 249 0.0 0.0 0.00 0.00 0.00 93 1021.3
20260502112243 51 249 0.0 0.0 0.00 0.00 0.00 93 1021.2
20260502111740 51 249 0.0 0.0 0.00 0.00 0.00 93 1021.2
20260502111237 51 249 0.0 0.0 0.00 0.00 0.00 93 1021.1
20260502110735 51 249 1.0 1.0 0.00 0.00 0.00 94 1021.1
20260502110232 51 249 0.0 1.0 0.00 0.00 0.00 94 1021.1
20260502105730 51 249 0.0 1.0 0.00 0.00 0.00 94 1021.2
20260502105226 50 249 0.0 0.0 0.00 0.00 0.00 94 1021.2
20260502104724 50 249 0.0 0.0 0.00 0.00 0.00 93 1021.2
20260502104222 50 249 0.0 0.0 0.00 0.00 0.00 93 1021.0
20260502103719 51 249 0.0 0.0 0.00 0.00 0.00 93 1021.0
20260502103217 51 249 0.0 0.0 0.00 0.00 0.00 92 1020.8
20260502102713 51 249 0.0 0.0 0.00 0.00 0.00 92 1020.6
20260502102210 51 249 0.0 0.0 0.00 0.00 0.00 92 1020.7
20260502101708 51 249 0.0 0.0 0.00 0.00 0.00 91 1020.6
20260502101206 51 249 0.0 0.0 0.00 0.00 0.00 91 1020.6
20260502100704 51 249 0.0 0.0 0.00 0.00 0.00 90 1020.7
20260502100202 52 249 0.0 0.0 0.00 0.00 0.00 90 1020.8
20260502091136 53 247 0.0 0.0 0.00 0.00 0.00 90 1020.7
20260502090633 53 247 0.0 1.0 0.00 0.00 0.00 90 1020.7
20260502090130 53 249 0.0 1.0 0.00 0.00 0.00 90 1020.5
20260502071528 51 172 0.0 0.0 0.00 0.00 0.00 95 1020.6
20260502071026 51 172 0.0 0.0 0.00 0.00 0.00 95 1020.7
20260502070523 51 172 0.0 0.0 0.00 0.00 0.00 95 1020.8
20260502070022 51 172 0.0 0.0 0.00 0.00 0.00 94 1020.6
20260502065520 51 172 0.0 0.0 0.00 0.00 0.00 94 1020.6
20260502065017 52 172 0.0 0.0 0.00 0.00 0.00 94 1020.9
20260502064515 52 172 0.0 0.0 0.00 0.00 0.00 94 1020.9
20260502064012 52 172 0.0 0.0 0.00 0.00 0.00 94 1020.8
20260502063510 52 172 0.0 0.0 0.00 0.00 0.00 94 1020.9
20260502063008 51 172 0.0 0.0 0.00 0.00 0.00 93 1021.0
20260502062504 52 172 0.0 0.0 0.00 0.00 0.00 93 1020.7
20260502062003 52 172 0.0 0.0 0.00 0.00 0.00 93 1020.6
20260502061500 52 172 0.0 0.0 0.00 0.00 0.00 93 1020.8
20260502060956 53 172 0.0 0.0 0.00 0.00 0.00 93 1020.6
20260502060451 53 172 0.0 0.0 0.00 0.00 0.00 93 1020.7
20260502055948 53 172 0.0 0.0 0.00 0.00 0.00 92 1020.7
20260502055446 53 172 0.0 0.0 0.00 0.00 0.00 92 1020.8
20260502054940 53 172 0.0 0.0 0.00 0.00 0.00 93 1020.8
20260502054438 53 172 0.0 0.0 0.00 0.00 0.00 92 1020.7
20260502053935 53 172 0.0 0.0 0.00 0.00 0.00 92 1020.7
20260502053432 53 172 0.0 0.0 0.00 0.00 0.00 92 1020.7
20260502052930 53 172 0.0 0.0 0.00 0.00 0.00 92 1020.7
20260502052428 53 172 0.0 0.0 0.00 0.00 0.00 92 1020.8
20260502051926 53 172 0.0 0.0 0.00 0.00 0.00 91 1020.8
20260502051424 53 172 0.0 0.0 0.00 0.00 0.00 91 1020.6
20260502050920 54 172 0.0 0.0 0.00 0.00 0.00 91 1020.6
20260502050417 54 172 0.0 0.0 0.00 0.00 0.00 90 1020.7
20260502045914 54 172 0.0 0.0 0.00 0.00 0.00 90 1020.7
20260502045411 54 172 0.0 0.0 0.00 0.00 0.00 90 1020.7
20260502044908 54 172 0.0 0.0 0.00 0.00 0.00 89 1020.5
20260502044403 54 172 0.0 0.0 0.00 0.00 0.00 89 1020.7
20260502043901 54 172 0.0 0.0 0.00 0.00 0.00 88 1020.6
20260502043358 55 172 0.0 0.0 0.00 0.00 0.00 88 1020.7
20260502042857 55 172 0.0 0.0 0.00 0.00 0.00 88 1020.4
20260502042355 55 172 0.0 0.0 0.00 0.00 0.00 87 1020.5
20260502041852 55 172 0.0 0.0 0.00 0.00 0.00 87 1020.4
20260502041349 55 172 0.0 0.0 0.00 0.00 0.00 86 1020.4
20260502040847 55 172 0.0 0.0 0.00 0.00 0.00 85 1020.5
20260502040344 55 172 0.0 0.0 0.00 0.00 0.00 85 1020.4
20260502035840 56 172 0.0 0.0 0.00 0.00 0.00 85 1020.5
20260502035336 56 172 0.0 0.0 0.00 0.00 0.00 84 1020.7
20260502034834 56 172 0.0 0.0 0.00 0.00 0.00 83 1020.6
20260502034332 57 172 0.0 0.0 0.00 0.00 0.00 82 1020.5
20260502033831 57 172 0.0 0.0 0.00 0.00 0.00 81 1020.7
20260502033328 57 172 0.0 0.0 0.00 0.00 0.00 81 1020.6
20260502032824 58 172 0.0 0.0 0.00 0.00 0.00 80 1020.4
20260502032320 58 172 0.0 0.0 0.00 0.00 0.00 79 1020.4
20260502031818 59 172 0.0 0.0 0.00 0.00 0.00 77 1020.4
20260502031316 59 172 0.0 0.0 0.00 0.00 0.00 75 1020.3
20260502030814 60 172 0.0 0.0 0.00 0.00 0.00 75 1019.9
20260502030312 59 172 0.0 1.0 0.00 0.00 0.00 77 1019.9
20260502025809 59 172 0.0 0.0 0.00 0.00 0.00 78 1020.2
20260502025307 59 172 0.0 0.0 0.00 0.00 0.00 78 1020.3
20260502024805 59 172 0.0 0.0 0.00 0.00 0.00 78 1020.1
20260502024302 59 172 0.0 0.0 0.00 0.00 0.00 77 1020.1
20260502023800 59 172 0.0 0.0 0.00 0.00 0.00 77 1020.1
20260502023258 59 172 0.0 0.0 0.00 0.00 0.00 77 1020.2
20260502022755 60 172 0.0 0.0 0.00 0.00 0.00 77 1020.1
20260502022251 59 172 1.0 1.0 0.00 0.00 0.00 76 1019.7
20260502021748 60 172 0.0 0.0 0.00 0.00 0.00 76 1019.9
20260502021245 60 172 0.0 0.0 0.00 0.00 0.00 76 1019.8
20260502020743 60 172 0.0 0.0 0.00 0.00 0.00 76 1019.6
20260502020240 60 172 0.0 0.0 0.00 0.00 0.00 75 1019.5
20260502015738 60 172 0.0 0.0 0.00 0.00 0.00 75 1019.2
20260502015233 60 172 0.0 0.0 0.00 0.00 0.00 75 1019.0
20260502014731 61 172 0.0 0.0 0.00 0.00 0.00 74 1019.0
20260502014228 61 172 1.0 1.0 0.00 0.00 0.00 74 1019.0
20260502013724 61 170 1.0 1.0 0.00 0.00 0.00 74 1018.6
20260502013220 61 170 0.0 0.0 0.00 0.00 0.00 73 1018.7
20260502012717 61 170 0.0 1.0 0.00 0.00 0.00 73 1018.7
20260502012215 62 170 1.0 2.0 0.00 0.00 0.00 72 1018.4
20260502011712 61 173 0.0 1.0 0.00 0.00 0.00 73 1018.4
20260502011207 61 173 0.0 0.0 0.00 0.00 0.00 72 1018.3
20260502010706 62 174 0.0 0.0 0.00 0.00 0.00 72 1018.2
20260502010201 62 174 0.0 0.0 0.00 0.00 0.00 71 1018.0
20260502005658 62 174 1.0 1.0 0.00 0.00 0.00 71 1018.3
20260502005156 62 174 0.0 0.0 0.00 0.00 0.00 70 1018.2
20260502004652 62 175 0.0 0.0 0.00 0.00 0.00 70 1018.2
20260502004149 62 175 0.0 0.0 0.00 0.00 0.00 70 1018.1
20260502003647 62 175 0.0 0.0 0.00 0.00 0.00 70 1018.0
20260502003144 62 177 0.0 0.0 0.00 0.00 0.00 69 1017.9
20260502002640 62 168 0.0 0.0 0.00 0.00 0.00 68 1018.3
20260502002137 62 168 0.0 0.0 0.00 0.00 0.00 68 1018.1
20260502001635 62 165 0.0 0.0 0.00 0.00 0.00 68 1018.1
20260502001132 62 159 0.0 0.0 0.00 0.00 0.00 68 1017.9
20260502000630 63 149 0.0 0.0 0.00 0.00 0.00 68 1017.7
20260502000127 63 142 0.0 0.0 0.00 0.00 0.00 67 1017.5
20260501235623 63 144 0.0 0.0 0.00 0.00 0.00 67 1017.5
20260501235119 63 137 0.0 1.0 0.00 0.00 0.00 67 1017.4
20260501234615 63 109 0.0 0.0 0.00 0.00 0.00 67 1017.2
20260501234112 63 69 0.0 1.0 0.00 0.00 0.00 66 1017.2
20260501233611 63 151 0.0 1.0 0.00 0.00 0.00 66 1017.1
20260501233108 63 155 1.0 1.0 0.00 0.00 0.00 67 1017.1
20260501232603 64 158 0.0 0.0 0.00 0.00 0.00 66 1017.1
20260501232101 64 156 0.0 1.0 0.00 0.00 0.00 66 1016.9
20260501231558 64 144 0.0 1.0 0.00 0.00 0.00 65 1016.9
20260501231056 64 151 0.0 0.0 0.00 0.00 0.00 65 1017.0
20260501230555 63 142 0.0 0.0 0.00 0.00 0.00 65 1016.8
20260501230053 63 90 1.0 2.0 0.00 0.00 0.00 64 1016.7
20260501225550 63 141 0.0 1.0 0.00 0.00 0.00 64 1017.0
20260501225046 63 127 0.0 0.0 0.00 0.00 0.00 64 1017.0
20260501224544 63 85 1.0 1.0 0.00 0.00 0.00 63 1016.9
20260501224040 64 144 0.0 1.0 0.00 0.00 0.00 63 1016.8
20260501223537 64 135 0.0 0.0 0.00 0.00 0.00 63 1016.7
20260501223033 64 104 1.0 1.0 0.00 0.00 0.00 63 1016.9
20260501222530 64 71 0.0 1.0 0.00 0.00 0.00 62 1016.9
20260501222027 63 88 1.0 1.0 0.00 0.00 0.00 63 1016.9
20260501221523 63 103 1.0 2.0 0.00 0.00 0.00 62 1016.8
20260501221021 63 75 1.0 1.0 0.00 0.00 0.00 62 1016.7
20260501220518 63 135 1.0 2.0 0.00 0.00 0.00 61 1016.6